Hourly Data Report for October 14, 2015

All times are specified in Local Standard Time (LST). Add 1 hour to adjust for Daylight Saving Time where and when it is observed.

RESOLUTE BAY A
NUNAVUT

74°43'01.000" N
94°58'10.000" W
67.70 m
2403498
71924
YRB

Download Data

Hourly Data (October 2015)
Hourly Data Report for October 14, 2015
Temp Definition
°C
Dew Point Temp Definition
°C
Rel Hum Definition
%
Wind Dir Definition
10's deg

Wind Spd Definition
km/h
Visibility Definition
km
Stn Press Definition
kPa
Hmdx Definition


Wind Chill Definition


Weather Definition


TIME
00:00 Legend Double Dagger -19.2 -21.3 84 36 32 16.1 99.76   -32 Mainly Clear
01:00 Legend Double Dagger -18.7 -20.8 84 35 31 11.3 99.75   -31 Snow
02:00 Legend Double Dagger -18.4 -20.5 84 35 28 11.3 99.76   -30 LegendNANA
03:00 Legend Double Dagger -18.0 -19.9 85 35 26 11.3 99.78   -29 Mostly Cloudy
04:00 Legend Double Dagger -20.3 -22.6 82 35 24 11.3 99.84   -32 LegendNANA
05:00 Legend Double Dagger -21.8 -24.1 82 35 28 11.3 99.87   -35 LegendNANA
06:00 Legend Double Dagger -23.2 -25.8 80 34 22 11.3 99.91   -35 Mainly Clear
07:00 Legend Double Dagger -22.2 -24.6 81 35 32 16.1 99.92   -36 LegendNANA
08:00 Legend Double Dagger -22.4 -24.8 81 35 32 16.1 99.93   -36 LegendNANA
09:00 Legend Double Dagger -22.2 -24.6 81 35 29 16.1 99.96   -35 Mainly Clear
10:00 Legend Double Dagger -22.7 -25.3 80 35 27 16.1 99.96   -36 LegendNANA
11:00 Legend Double Dagger -22.3 -24.7 81 35 32 16.1 99.96   -36 LegendNANA
12:00 Legend Double Dagger -22.5 -25.1 80 35 27 19.3 99.97   -35 Mainly Clear
13:00 Legend Double Dagger -22.5 -24.9 81 35 27 19.3 99.98   -35 LegendNANA
14:00 Legend Double Dagger -22.4 -24.8 81 35 29 19.3 99.99   -36 LegendNANA
15:00 Legend Double Dagger -23.3 -25.9 80 35 28 24.1 100.01   -36 Mainly Clear
16:00 Legend Double Dagger -23.0 -25.6 80 34 23 24.1 100.01   -35 LegendNANA
17:00 Legend Double Dagger -23.3 -25.7 81 35 28 24.1 100.02   -36 LegendNANA
18:00 Legend Double Dagger -22.6 -25.0 81 35 32 24.1 100.02   -36 Mainly Clear
19:00 Legend Double Dagger -23.2 -25.8 80 35 29 24.1 100.00   -37 LegendNANA
20:00 Legend Double Dagger -23.9 -26.4 80 35 27 24.1 99.97   -37 LegendNANA
21:00 Legend Double Dagger -24.0 -26.5 80 34 25 24.1 99.92   -37 Mainly Clear
22:00 Legend Double Dagger -22.7 -25.1 81 35 24 6.4 99.89   -35 Ice Crystals
23:00 Legend Double Dagger -22.5 -24.9 81 34 22 6.4 99.85   -34 Ice Crystals

Notes on Data Quality.

Legend

  • E = Estimated
  • M = Missing
  • NA = Not Available
  • ‡ = Partner data that is not subject to review by the National Climate Archives
Date modified: